This is the latest recevied weather packets stored in our database for station/object 7L2IWN-13. If no packets are shown the sender has not sent any weather packets the latest 10 day(s).
| Time | Temp. | Humidity | Pressure | Rain* | Wind** | Luminosity | Snow |
|---|---|---|---|---|---|---|---|
| 1777844062 | 14.44° C | 99% | 997.2 hPa | 0 mm | - | - | - |
| 1777843341 | 14.44° C | 99% | 997.1 hPa | 0 mm | - | - | - |
| 1777842622 | 13.89° C | 99% | 997 hPa | 0.51 mm | - | - | - |
| 1777841902 | 13.89° C | 99% | 997.2 hPa | 0.51 mm | - | - | - |
| 1777841182 | 13.89° C | 99% | 997.5 hPa | 4.57 mm | - | - | - |
| 1777840461 | 13.89° C | 99% | 997.7 hPa | 4.57 mm | - | - | - |
| 1777839742 | 13.89° C | 99% | 997.8 hPa | 4.57 mm | - | - | - |
| 1777839022 | 13.89° C | 99% | 997.4 hPa | 4.06 mm | - | - | - |
| 1777838302 | 13.89° C | 99% | 997.3 hPa | 4.06 mm | - | - | - |
| 1777837581 | 14.44° C | 99% | 997.8 hPa | 0 mm | - | - | - |
| 1777836862 | 14.44° C | 99% | 997.6 hPa | 1.52 mm | - | - | - |
| 1777836143 | 14.44° C | 99% | 998.1 hPa | 1.52 mm | - | - | - |
| 1777835421 | 14.44° C | 99% | 997.6 hPa | 1.52 mm | - | - | - |
| 1777834701 | 14.44° C | 99% | 997.7 hPa | 1.78 mm | - | - | - |
| 1777833981 | 14.44° C | 99% | 998.4 hPa | 1.78 mm | - | - | - |
| 1777833261 | 14.44° C | 99% | 999 hPa | 0.25 mm | - | - | - |
| 1777832541 | 14.44° C | 99% | 999.4 hPa | 0.25 mm | - | - | - |
| 1777831820 | 14.44° C | 99% | 999.5 hPa | 0.25 mm | - | - | - |
| 1777831100 | 14.44° C | 99% | 998.8 hPa | 0 mm | - | - | - |
| 1777830380 | 14.44° C | 97% | 999 hPa | 0 mm | - | - | - |
| 1777829659 | 14.44° C | 96% | 999.5 hPa | 0 mm | - | - | - |
| 1777828940 | 15° C | 94% | 999.6 hPa | 0 mm | - | - | - |
| 1777828221 | 15° C | 92% | 999.7 hPa | 0 mm | - | - | - |
| 1777827500 | 15° C | 92% | 1000.4 hPa | 0 mm | - | - | - |
| 1777826780 | 15° C | 92% | 1000.2 hPa | 0 mm | - | - | - |
* Rain latest hour (hover to see other rain measurements)
** Current wind speed in m/s (hover to see current wind gust speed)